QPF
0.05 0.05 0.03 0.01 0.01 0.00 0.00 0.00 0.00 0.00 0.00 0.00 0.00 0.00 0.00 0.00 0.00 0.00 0.00 0.00 0.00 0.00 0.00 0.00 0.00 0.00 0.00 0.00 0.00 0.00 0.00 0.00 0.00 0.00 0.00 0.00 0.00 0.00 0.00 0.00 0.00 0.00 0.00 0.00
0.05 0.04 0.01 0.00 0.01 0.01 0.00 0.00 0.00 0.00 0.00 0.00 0.00 0.00 0.00 0.00 0.00 0.00 0.00 0.00 0.00 0.00 0.00 0.00 0.00 0.00 0.00 0.00 0.00 0.00 0.00 0.00 0.00 0.00 0.00 0.00 0.00 0.00 0.00 0.00 0.00 0.00 0.00 0.00
0.03 0.01 0.01 0.01 0.01 0.01 0.01 0.00 0.00 0.00 0.00 0.00 0.00 0.00 0.00 0.00 0.00 0.00 0.00 0.00 0.00 0.00 0.00 0.00 0.00 0.00 0.00 0.00 0.00 0.00 0.00 0.00 0.00 0.00 0.00 0.00 0.00 0.00 0.00 0.00 0.00 0.00 0.00 0.00
0.03 0.01 0.01 0.01 0.01 0.01 0.01 0.00 0.00 0.00 0.00 0.00 0.00 0.00 0.00 0.00 0.00 0.00 0.00 0.00 0.00 0.00 0.00 0.00 0.00 0.00 0.00 0.00 0.00 0.00 0.00 0.00 0.00 0.00 0.00 0.00 0.00 0.00 0.00 0.00 0.00 0.00 0.00 0.00
0.05 0.02 0.01 0.01 0.00 0.00 0.00 0.00 0.00 0.01 0.01 0.01 0.00 0.00 0.00 0.00 0.00 0.00 0.00 0.00 0.00 0.00 0.00 0.00 0.00 0.00 0.00 0.00 0.00 0.00 0.00 0.00 0.00 0.00 0.00 0.00 0.00 0.00 0.00 0.00 0.00 0.00 0.00 0.00
0.04 0.01 0.01 0.01 0.01 0.01 0.01 0.01 0.01 0.01 0.01 0.01 0.00 0.00 0.00 0.00 0.00 0.00 0.00 0.00 0.00 0.00 0.00 0.00 0.00 0.00 0.00 0.00 0.00 0.00 0.00 0.00 0.00 0.00 0.00 0.00 0.00 0.00 0.00 0.00 0.00 0.00 0.00 0.00
0.09 0.03 0.01 0.01 0.02 0.03 0.02 0.02 0.03 0.04 0.04 0.01 0.00 0.00 0.00 0.00 0.00 0.00 0.00 0.00 0.00 0.00 0.00 0.00 0.00 0.00 0.00 0.00 0.00 0.00 0.00 0.00 0.00 0.00 0.00 0.00 0.00 0.00 0.00 0.00 0.00 0.00 0.00 0.00
0.08 0.05 0.02 0.01 0.02 0.03 0.02 0.01 0.02 0.02 0.01 0.00 0.00 0.00 0.00 0.00 0.00 0.00 0.00 0.00 0.00 0.00 0.00 0.00 0.00 0.00 0.00 0.00 0.00 0.00 0.00 0.00 0.00 0.00 0.00 0.00 0.00 0.00 0.00 0.00 0.00 0.00 0.00 0.00
0.03 0.03 0.01 0.01 0.01 0.01 0.02 0.02 0.01 0.01 0.00 0.00 0.00 0.00 0.00 0.00 0.00 0.00 0.00 0.00 0.00 0.00 0.00 0.00 0.00 0.00 0.00 0.00 0.00 0.00 0.00 0.00 0.00 0.00 0.00 0.00 0.00 0.00 0.00 0.00 0.00 0.00 0.00 0.00
0.01 0.02 0.02 0.01 0.01 0.01 0.01 0.02 0.03 0.02 0.01 0.00 0.00 0.00 0.00 0.00 0.00 0.00 0.00 0.00 0.00 0.00 0.00 0.00 0.00 0.00 0.00 0.00 0.00 0.00 0.00 0.00 0.00 0.00 0.00 0.00 0.00 0.00 0.00 0.00 0.00 0.00 0.00 0.00
0.03 0.03 0.02 0.02 0.03 0.02 0.01 0.02 0.03 0.02 0.01 0.00 0.00 0.00 0.00 0.00 0.00 0.00 0.00 0.00 0.00 0.00 0.00 0.00 0.00 0.00 0.00 0.00 0.00 0.00 0.00 0.00 0.00 0.00 0.00 0.00 0.00 0.00 0.00 0.00 0.00 0.00 0.00 0.00
0.05 0.04 0.03 0.02 0.02 0.01 0.01 0.01 0.01 0.01 0.01 0.00 0.00 0.00 0.00 0.00 0.00 0.00 0.00 0.00 0.00 0.00 0.00 0.00 0.00 0.00 0.00 0.00 0.00 0.00 0.00 0.00 0.00 0.00 0.00 0.00 0.00 0.00 0.00 0.00 0.00 0.00 0.00 0.00
0.05 0.05 0.07 0.09 0.06 0.02 0.01 0.01 0.00 0.00 0.00 0.00 0.00 0.00 0.00 0.00 0.00 0.00 0.00 0.00 0.00 0.00 0.00 0.00 0.00 0.00 0.00 0.00 0.00 0.00 0.00 0.00 0.00 0.00 0.00 0.00 0.00 0.00 0.00 0.00 0.00 0.01 0.01 0.01
0.03 0.03 0.02 0.04 0.02 0.01 0.01 0.00 0.00 0.00 0.01 0.00 0.00 0.00 0.00 0.00 0.00 0.00 0.00 0.00 0.00 0.00 0.00 0.00 0.00 0.00 0.00 0.00 0.00 0.00 0.00 0.00 0.00 0.00 0.00 0.00 0.00 0.00 0.00 0.00 0.01 0.01 0.01 0.01
0.05 0.04 0.01 0.00 0.00 0.00 0.00 0.00 0.00 0.00 0.00 0.00 0.00 0.00 0.00 0.00 0.00 0.00 0.00 0.00 0.00 0.00 0.00 0.00 0.00 0.00 0.00 0.00 0.00 0.00 0.00 0.00 0.00 0.00 0.00 0.00 0.00 0.00 0.00 0.00 0.01 0.01 0.01 0.01
0.09 0.05 0.02 0.01 0.01 0.01 0.00 0.00 0.00 0.00 0.00 0.00 0.00 0.00 0.00 0.00 0.00 0.00 0.00 0.00 0.00 0.00 0.00 0.00 0.00 0.00 0.00 0.00 0.00 0.00 0.00 0.00 0.00 0.00 0.00 0.00 0.00 0.00 0.00 0.00 0.00 0.01 0.01 0.01
0.08 0.05 0.04 0.04 0.02 0.03 0.03 0.01 0.00 0.00 0.00 0.00 0.00 0.00 0.00 0.00 0.00 0.00 0.00 0.00 0.00 0.00 0.00 0.00 0.00 0.00 0.00 0.00 0.00 0.00 0.00 0.00 0.00 0.00 0.00 0.00 0.00 0.00 0.00 0.00 0.00 0.01 0.01 0.01
0.06 0.05 0.04 0.05 0.06 0.09 0.03 0.00 0.00 0.00 0.00 0.00 0.00 0.00 0.00 0.00 0.00 0.00 0.00 0.00 0.00 0.00 0.00 0.00 0.00 0.00 0.00 0.00 0.00 0.00 0.00 0.00 0.00 0.00 0.00 0.00 0.00 0.00 0.00 0.00 0.00 0.01 0.01 0.01
0.06 0.07 0.10 0.09 0.06 0.03 0.00 0.00 0.00 0.00 0.00 0.00 0.00 0.00 0.00 0.00 0.00 0.00 0.00 0.00 0.00 0.00 0.00 0.00 0.00 0.00 0.00 0.00 0.00 0.00 0.00 0.00 0.00 0.00 0.00 0.00 0.00 0.00 0.00 0.00 0.00 0.00 0.01 0.01
0.09 0.09 0.12 0.09 0.05 0.02 0.00 0.00 0.00 0.00 0.00 0.00 0.00 0.00 0.00 0.00 0.00 0.00 0.00 0.00 0.00 0.00 0.00 0.00 0.00 0.00 0.00 0.00 0.00 0.00 0.00 0.00 0.00 0.00 0.00 0.00 0.00 0.00 0.00 0.00 0.00 0.00 0.01 0.01
0.15 0.18 0.15 0.07 0.03 0.00 0.00 0.00 0.00 0.00 0.00 0.00 0.00 0.00 0.00 0.00 0.00 0.00 0.00 0.00 0.00 0.00 0.00 0.00 0.00 0.00 0.00 0.00 0.00 0.00 0.00 0.00 0.00 0.00 0.00 0.00 0.00 0.00 0.00 0.00 0.00 0.00 0.00 0.01
0.06 0.10 0.09 0.05 0.02 0.00 0.00 0.00 0.00 0.00 0.00 0.00 0.00 0.00 0.00 0.00 0.00 0.00 0.00 0.00 0.00 0.00 0.00 0.00 0.00 0.00 0.00 0.00 0.00 0.00 0.00 0.00 0.00 0.00 0.00 0.00 0.00 0.00 0.00 0.00 0.00 0.00 0.01 0.01
0.01 0.01 0.01 0.01 0.00 0.00 0.00 0.00 0.00 0.00 0.00 0.00 0.00 0.00 0.00 0.00 0.00 0.00 0.00 0.00 0.00 0.00 0.00 0.00 0.00 0.00 0.00 0.00 0.00 0.00 0.00 0.00 0.00 0.00 0.00 0.00 0.00 0.00 0.00 0.00 0.00 0.00 0.01 0.01
0.00 0.00 0.00 0.00 0.00 0.00 0.00 0.00 0.00 0.00 0.00 0.00 0.00 0.00 0.00 0.00 0.00 0.00 0.00 0.00 0.00 0.00 0.00 0.00 0.00 0.00 0.00 0.00 0.00 0.00 0.00 0.00 0.00 0.00 0.00 0.00 0.00 0.00 0.00 0.00 0.00 0.00 0.00 0.00
0.00 0.00 0.00 0.00 0.00 0.00 0.00 0.00 0.00 0.00 0.00 0.00 0.00 0.00 0.00 0.00 0.00 0.00 0.00 0.00 0.00 0.00 0.00 0.00 0.00 0.00 0.00 0.00 0.00 0.00 0.00 0.00 0.00 0.00 0.00 0.00 0.00 0.00 0.00 0.00 0.00 0.00 0.00 0.00
0.00 0.00 0.00 0.00 0.00 0.00 0.00 0.00 0.00 0.00 0.00 0.00 0.00 0.00 0.00 0.00 0.00 0.00 0.00 0.00 0.00 0.00 0.00 0.00 0.00 0.00 0.00 0.00 0.00 0.00 0.00 0.00 0.00 0.00 0.00 0.00 0.00 0.00 0.00 0.00 0.00 0.00 0.00 0.00
MSLP
1015.19 1015.34 1015.45 1015.55 1015.66 1015.81 1015.99 1016.19 1016.40 1016.56 1016.65 1016.63 1016.49 1016.21 1015.83 1015.37 1014.88 1014.43 1014.05 1013.80 1013.70 1013.76 1013.96 1014.30 1014.74 1015.24 1015.78 1016.34 1016.90 1017.44 1017.98 1018.49 1018.97 1019.43 1019.84 1020.21 1020.53 1020.80 1021.05 1021.28 1021.52 1021.79 1022.11 1022.49
1014.66 1014.75 1014.81 1014.89 1015.01 1015.21 1015.48 1015.79 1016.11 1016.38 1016.55 1016.58 1016.44 1016.13 1015.67 1015.11 1014.51 1013.95 1013.48 1013.16 1013.01 1013.03 1013.22 1013.55 1013.98 1014.47 1015.01 1015.56 1016.12 1016.68 1017.24 1017.79 1018.33 1018.84 1019.32 1019.74 1020.10 1020.39 1020.63 1020.84 1021.05 1021.29 1021.58 1021.95
1014.01 1014.08 1014.14 1014.25 1014.44 1014.73 1015.10 1015.54 1015.98 1016.34 1016.57 1016.62 1016.44 1016.05 1015.49 1014.81 1014.09 1013.42 1012.86 1012.47 1012.27 1012.27 1012.44 1012.76 1013.17 1013.64 1014.14 1014.67 1015.21 1015.76 1016.33 1016.92 1017.51 1018.09 1018.63 1019.12 1019.53 1019.86 1020.12 1020.32 1020.52 1020.73 1021.00 1021.35
1013.31 1013.41 1013.53 1013.72 1014.02 1014.43 1014.94 1015.50 1016.04 1016.46 1016.71 1016.71 1016.46 1015.96 1015.26 1014.44 1013.59 1012.81 1012.18 1011.73 1011.50 1011.48 1011.64 1011.94 1012.32 1012.75 1013.21 1013.69 1014.19 1014.71 1015.27 1015.88 1016.50 1017.14 1017.75 1018.30 1018.78 1019.16 1019.45 1019.67 1019.87 1020.08 1020.34 1020.67
1012.60 1012.77 1012.99 1013.31 1013.75 1014.31 1014.97 1015.64 1016.24 1016.69 1016.90 1016.83 1016.45 1015.80 1014.95 1013.98 1013.01 1012.14 1011.43 1010.95 1010.71 1010.69 1010.85 1011.13 1011.48 1011.87 1012.27 1012.68 1013.11 1013.59 1014.11 1014.70 1015.34 1016.01 1016.67 1017.28 1017.82 1018.26 1018.59 1018.85 1019.06 1019.28 1019.54 1019.87
1011.86 1012.14 1012.49 1012.96 1013.57 1014.29 1015.07 1015.84 1016.48 1016.92 1017.06 1016.87 1016.35 1015.54 1014.53 1013.43 1012.35 1011.41 1010.67 1010.19 1009.95 1009.95 1010.12 1010.39 1010.72 1011.06 1011.39 1011.72 1012.06 1012.45 1012.92 1013.46 1014.08 1014.75 1015.43 1016.08 1016.66 1017.14 1017.53 1017.83 1018.08 1018.32 1018.60 1018.94
1011.08 1011.47 1011.96 1012.60 1013.36 1014.23 1015.13 1015.96 1016.62 1017.00 1017.06 1016.74 1016.08 1015.13 1013.99 1012.79 1011.65 1010.67 1009.94 1009.48 1009.29 1009.32 1009.50 1009.78 1010.08 1010.37 1010.62 1010.86 1011.10 1011.39 1011.76 1012.23 1012.79 1013.42 1014.08 1014.74 1015.34 1015.85 1016.28 1016.62 1016.92 1017.21 1017.52 1017.89
1010.21 1010.70 1011.32 1012.10 1013.01 1014.00 1014.98 1015.85 1016.50 1016.83 1016.80 1016.38 1015.60 1014.55 1013.33 1012.09 1010.94 1009.98 1009.30 1008.90 1008.76 1008.84 1009.06 1009.34 1009.61 1009.84 1010.02 1010.15 1010.29 1010.46 1010.71 1011.07 1011.54 1012.10 1012.71 1013.33 1013.91 1014.44 1014.89 1015.28 1015.62 1015.96 1016.32 1016.75
1009.24 1009.80 1010.53 1011.42 1012.44 1013.51 1014.54 1015.42 1016.05 1016.33 1016.22 1015.73 1014.89 1013.80 1012.58 1011.35 1010.26 1009.38 1008.78 1008.46 1008.41 1008.54 1008.79 1009.07 1009.32 1009.49 1009.59 1009.63 1009.65 1009.70 1009.83 1010.07 1010.42 1010.86 1011.38 1011.94 1012.48 1012.99 1013.45 1013.86 1014.25 1014.65 1015.07 1015.56
1008.21 1008.82 1009.61 1010.56 1011.64 1012.74 1013.79 1014.66 1015.24 1015.48 1015.33 1014.81 1013.97 1012.91 1011.75 1010.62 1009.64 1008.88 1008.40 1008.19 1008.21 1008.40 1008.67 1008.94 1009.15 1009.28 1009.30 1009.26 1009.18 1009.12 1009.13 1009.24 1009.46 1009.79 1010.19 1010.65 1011.12 1011.59 1012.03 1012.46 1012.89 1013.34 1013.83 1014.38
1007.21 1007.82 1008.63 1009.61 1010.69 1011.78 1012.79 1013.61 1014.14 1014.34 1014.17 1013.66 1012.88 1011.92 1010.89 1009.91 1009.08 1008.48 1008.13 1008.02 1008.12 1008.34 1008.62 1008.87 1009.05 1009.13 1009.10 1008.99 1008.84 1008.70 1008.61 1008.61 1008.71 1008.91 1009.19 1009.54 1009.93 1010.33 1010.75 1011.18 1011.64 1012.14 1012.69 1013.31
1006.35 1006.95 1007.74 1008.69 1009.72 1010.75 1011.68 1012.41 1012.88 1013.03 1012.86 1012.39 1011.70 1010.87 1010.01 1009.21 1008.57 1008.13 1007.91 1007.90 1008.04 1008.28 1008.54 1008.77 1008.91 1008.95 1008.88 1008.74 1008.55 1008.36 1008.21 1008.14 1008.14 1008.24 1008.42 1008.66 1008.95 1009.29 1009.67 1010.10 1010.58 1011.11 1011.72 1012.39
1005.71 1006.29 1007.04 1007.92 1008.86 1009.77 1010.58 1011.19 1011.56 1011.65 1011.47 1011.06 1010.48 1009.80 1009.12 1008.52 1008.06 1007.77 1007.66 1007.71 1007.88 1008.12 1008.35 1008.54 1008.65 1008.66 1008.58 1008.44 1008.25 1008.06 1007.90 1007.79 1007.75 1007.77 1007.87 1008.02 1008.25 1008.53 1008.87 1009.28 1009.77 1010.33 1010.97 1011.68
1005.33 1005.88 1006.58 1007.36 1008.17 1008.92 1009.56 1010.03 1010.27 1010.29 1010.10 1009.73 1009.25 1008.72 1008.22 1007.79 1007.49 1007.33 1007.31 1007.41 1007.58 1007.78 1007.98 1008.12 1008.20 1008.21 1008.15 1008.03 1007.90 1007.75 1007.63 1007.54 1007.49 1007.49 1007.54 1007.65 1007.81 1008.05 1008.36 1008.77 1009.26 1009.84 1010.49 1011.22
1005.17 1005.69 1006.31 1006.97 1007.62 1008.20 1008.65 1008.94 1009.04 1008.96 1008.74 1008.41 1008.01 1007.62 1007.27 1007.00 1006.84 1006.78 1006.82 1006.94 1007.09 1007.26 1007.41 1007.52 1007.58 1007.60 1007.58 1007.54 1007.48 1007.43 1007.39 1007.36 1007.36 1007.37 1007.42 1007.51 1007.66 1007.87 1008.16 1008.56 1009.05 1009.63 1010.29 1011.00
1005.11 1005.59 1006.12 1006.65 1007.13 1007.51 1007.76 1007.86 1007.82 1007.65 1007.38 1007.07 1006.76 1006.47 1006.26 1006.12 1006.07 1006.10 1006.19 1006.31 1006.45 1006.58 1006.69 1006.77 1006.84 1006.89 1006.94 1006.99 1007.04 1007.11 1007.18 1007.25 1007.33 1007.40 1007.49 1007.59 1007.74 1007.95 1008.25 1008.63 1009.11 1009.69 1010.33 1011.02
1004.98 1005.41 1005.84 1006.23 1006.54 1006.73 1006.79 1006.72 1006.54 1006.28 1005.99 1005.71 1005.46 1005.28 1005.18 1005.17 1005.22 1005.32 1005.46 1005.59 1005.72 1005.83 1005.92 1006.00 1006.09 1006.19 1006.31 1006.47 1006.65 1006.84 1007.04 1007.23 1007.41 1007.56 1007.71 1007.86 1008.03 1008.26 1008.55 1008.94 1009.41 1009.96 1010.57 1011.21
1004.64 1004.98 1005.30 1005.55 1005.69 1005.71 1005.62 1005.41 1005.13 1004.83 1004.53 1004.29 1004.12 1004.05 1004.07 1004.17 1004.33 1004.51 1004.70 1004.87 1005.02 1005.13 1005.23 1005.34 1005.46 1005.62 1005.83 1006.09 1006.38 1006.70 1007.02 1007.32 1007.60 1007.84 1008.06 1008.26 1008.47 1008.72 1009.03 1009.41 1009.86 1010.38 1010.94 1011.52
1003.98 1004.22 1004.41 1004.52 1004.52 1004.41 1004.20 1003.91 1003.59 1003.28 1003.02 1002.85 1002.79 1002.83 1002.98 1003.21 1003.48 1003.76 1004.03 1004.26 1004.46 1004.62 1004.76 1004.91 1005.09 1005.31 1005.59 1005.93 1006.32 1006.73 1007.14 1007.54 1007.90 1008.21 1008.49 1008.75 1009.00 1009.27 1009.59 1009.95 1010.38 1010.85 1011.35 1011.86
1003.04 1003.13 1003.19 1003.17 1003.06 1002.87 1002.60 1002.29 1001.98 1001.71 1001.53 1001.47 1001.53 1001.71 1002.00 1002.36 1002.76 1003.16 1003.54 1003.86 1004.14 1004.38 1004.59 1004.80 1005.04 1005.33 1005.67 1006.07 1006.51 1006.97 1007.44 1007.89 1008.30 1008.66 1008.98 1009.28 1009.56 1009.85 1010.16 1010.51 1010.89 1011.30 1011.74 1012.17
1001.90 1001.85 1001.77 1001.65 1001.47 1001.23 1000.96 1000.68 1000.43 1000.26 1000.19 1000.26 1000.46 1000.78 1001.22 1001.72 1002.26 1002.79 1003.29 1003.73 1004.12 1004.46 1004.76 1005.06 1005.36 1005.70 1006.08 1006.50 1006.96 1007.43 1007.90 1008.35 1008.77 1009.15 1009.49 1009.80 1010.09 1010.38 1010.68 1011.00 1011.34 1011.69 1012.05 1012.40
1000.75 1000.56 1000.37 1000.18 999.96 999.73 999.49 999.29 999.14 999.09 999.15 999.35 999.69 1000.16 1000.73 1001.37 1002.03 1002.70 1003.33 1003.90 1004.41 1004.87 1005.27 1005.65 1006.02 1006.40 1006.79 1007.21 1007.64 1008.08 1008.50 1008.92 1009.30 1009.65 1009.98 1010.27 1010.56 1010.83 1011.11 1011.40 1011.69 1011.98 1012.27 1012.54
999.81 999.50 999.24 999.00 998.78 998.59 998.43 998.32 998.29 998.36 998.55 998.87 999.33 999.91 1000.59 1001.34 1002.12 1002.90 1003.65 1004.34 1004.98 1005.55 1006.06 1006.53 1006.95 1007.35 1007.74 1008.12 1008.49 1008.85 1009.20 1009.54 1009.85 1010.14 1010.42 1010.69 1010.95 1011.20 1011.46 1011.70 1011.94 1012.18 1012.39 1012.60
999.25 998.88 998.58 998.34 998.15 998.01 997.93 997.92 997.99 998.17 998.46 998.88 999.42 1000.07 1000.82 1001.64 1002.50 1003.36 1004.21 1005.02 1005.77 1006.44 1007.05 1007.58 1008.05 1008.46 1008.83 1009.15 1009.44 1009.71 1009.95 1010.18 1010.40 1010.62 1010.83 1011.05 1011.27 1011.50 1011.72 1011.93 1012.12 1012.30 1012.46 1012.60
999.19 998.80 998.51 998.29 998.15 998.08 998.07 998.15 998.30 998.56 998.91 999.38 999.95 1000.63 1001.40 1002.25 1003.14 1004.06 1004.97 1005.85 1006.68 1007.45 1008.13 1008.72 1009.22 1009.63 1009.96 1010.22 1010.42 1010.58 1010.71 1010.82 1010.94 1011.07 1011.21 1011.38 1011.56 1011.75 1011.94 1012.12 1012.27 1012.41 1012.52 1012.61
999.65 999.30 999.05 998.89 998.80 998.79 998.84 998.97 999.18 999.46 999.84 1000.30 1000.87 1001.53 1002.28 1003.10 1003.99 1004.92 1005.86 1006.78 1007.67 1008.49 1009.22 1009.85 1010.37 1010.77 1011.06 1011.26 1011.37 1011.43 1011.45 1011.46 1011.47 1011.52 1011.59 1011.70 1011.84 1012.00 1012.17 1012.32 1012.45 1012.55 1012.62 1012.67
Thickness
5589 5591 5602 5617 5625 5632 5636 5633 5635 5647 5660 5654 5653 5660 5674 5684 5687 5690 5694 5699 5702 5705 5709 5709 5708 5705 5703 5701 5698 5695 5691 5688 5685 5682 5679 5676 5675 5674 5674 5673 5673 5671 5669 5666
5576 5591 5614 5617 5618 5619 5623 5624 5631 5641 5646 5646 5646 5655 5672 5682 5686 5692 5695 5697 5701 5704 5706 5707 5707 5705 5703 5701 5699 5696 5693 5689 5686 5684 5681 5679 5676 5675 5675 5673 5672 5671 5668 5665
5586 5605 5607 5605 5606 5608 5613 5617 5624 5628 5631 5634 5632 5640 5662 5680 5688 5693 5698 5701 5704 5705 5705 5706 5706 5705 5703 5702 5701 5699 5696 5692 5688 5684 5679 5676 5674 5674 5673 5672 5671 5669 5667 5665
5580 5596 5596 5597 5602 5608 5607 5618 5619 5617 5612 5614 5623 5620 5661 5679 5685 5691 5695 5698 5702 5705 5706 5706 5706 5705 5705 5704 5702 5700 5697 5693 5690 5685 5681 5678 5677 5677 5677 5674 5672 5669 5667 5665
5576 5586 5589 5592 5604 5606 5606 5611 5608 5605 5601 5599 5612 5610 5642 5672 5676 5687 5695 5698 5701 5704 5706 5706 5707 5707 5707 5705 5702 5699 5696 5693 5691 5687 5684 5680 5679 5680 5677 5673 5671 5669 5666 5664
5572 5582 5587 5595 5599 5598 5596 5593 5588 5587 5583 5578 5604 5601 5628 5659 5675 5686 5694 5699 5701 5703 5705 5707 5708 5707 5706 5704 5701 5698 5695 5693 5691 5688 5684 5682 5681 5679 5675 5672 5670 5668 5665 5663
5553 5564 5579 5588 5582 5581 5582 5573 5561 5558 5560 5577 5608 5604 5631 5665 5682 5688 5691 5695 5698 5699 5701 5703 5704 5704 5703 5702 5700 5698 5695 5693 5691 5688 5685 5684 5681 5678 5675 5673 5671 5667 5664 5662
5551 5554 5569 5580 5583 5580 5580 5580 5570 5563 5566 5580 5594 5600 5639 5669 5679 5685 5688 5689 5690 5692 5693 5697 5699 5700 5700 5699 5698 5696 5694 5692 5690 5687 5686 5684 5680 5677 5676 5673 5671 5668 5666 5663
5559 5561 5569 5577 5583 5580 5569 5571 5585 5571 5565 5568 5583 5610 5641 5658 5664 5669 5673 5675 5678 5681 5685 5688 5691 5693 5694 5694 5693 5692 5691 5689 5688 5686 5684 5681 5679 5676 5675 5673 5669 5667 5664 5661
5569 5556 5559 5562 5565 5567 5573 5571 5559 5554 5553 5561 5586 5604 5624 5643 5649 5656 5660 5664 5668 5672 5675 5678 5679 5682 5684 5686 5686 5686 5685 5684 5683 5681 5680 5678 5676 5674 5671 5667 5665 5663 5661 5657
5561 5550 5545 5546 5553 5560 5562 5559 5560 5557 5562 5565 5572 5600 5645 5648 5650 5651 5654 5658 5661 5663 5664 5665 5667 5670 5672 5674 5675 5675 5676 5675 5674 5674 5673 5671 5670 5668 5664 5662 5660 5657 5654 5651
5551 5544 5539 5543 5552 5561 5563 5564 5563 5557 5557 5572 5575 5597 5643 5646 5645 5645 5646 5649 5651 5653 5653 5654 5656 5657 5659 5660 5662 5663 5664 5665 5665 5665 5664 5664 5662 5660 5657 5656 5654 5650 5647 5643
5545 5534 5529 5522 5524 5539 5552 5562 5565 5566 5557 5555 5561 5590 5629 5631 5632 5635 5635 5636 5637 5640 5642 5642 5644 5645 5647 5648 5650 5651 5652 5653 5653 5653 5652 5652 5652 5651 5650 5648 5646 5642 5639 5634
5544 5536 5543 5550 5557 5557 5554 5558 5561 5556 5548 5554 5571 5598 5612 5618 5620 5623 5625 5627 5628 5630 5630 5632 5633 5636 5638 5639 5639 5640 5640 5641 5640 5639 5639 5639 5639 5639 5638 5637 5634 5632 5628 5624
5539 5532 5544 5557 5562 5556 5554 5556 5556 5557 5565 5567 5586 5597 5610 5614 5614 5616 5618 5619 5620 5621 5622 5624 5624 5626 5628 5628 5628 5629 5628 5627 5626 5625 5625 5625 5625 5624 5623 5621 5619 5617 5614 5612
5532 5531 5536 5538 5549 5550 5546 5550 5553 5559 5568 5574 5583 5594 5616 5614 5611 5610 5612 5612 5612 5614 5615 5616 5617 5618 5618 5619 5618 5618 5616 5614 5613 5611 5610 5610 5608 5607 5606 5605 5602 5600 5597 5594
5526 5521 5521 5522 5529 5529 5528 5553 5559 5564 5572 5574 5577 5600 5607 5602 5602 5603 5605 5606 5606 5608 5609 5610 5610 5610 5610 5610 5609 5606 5604 5601 5598 5596 5594 5592 5591 5590 5588 5587 5585 5582 5580 5577
5522 5512 5511 5509 5509 5509 5549 5567 5564 5565 5572 5576 5585 5596 5597 5596 5595 5598 5601 5600 5600 5602 5602 5602 5601 5600 5600 5599 5597 5595 5591 5587 5583 5580 5578 5576 5575 5573 5571 5570 5568 5565 5563 5560
5519 5510 5501 5501 5507 5518 5547 5564 5569 5563 5569 5581 5583 5590 5589 5587 5583 5590 5596 5595 5594 5593 5592 5590 5589 5589 5588 5586 5583 5579 5574 5571 5568 5566 5564 5562 5560 5559 5557 5554 5552 5549 5547 5544
5507 5508 5499 5499 5505 5516 5559 5569 5571 5557 5557 5585 5584 5585 5582 5575 5571 5591 5589 5585 5583 5580 5577 5575 5574 5574 5573 5570 5567 5563 5559 5556 5554 5552 5550 5548 5546 5544 5542 5540 5536 5533 5531 5529
5493 5493 5497 5499 5504 5528 5560 5562 5561 5544 5571 5585 5582 5584 5580 5577 5584 5584 5574 5569 5566 5563 5561 5560 5559 5557 5555 5553 5551 5547 5544 5542 5540 5538 5536 5534 5531 5530 5527 5525 5521 5518 5516 5513
5499 5498 5498 5500 5504 5528 5551 5554 5557 5566 5574 5574 5577 5579 5577 5575 5570 5563 5558 5553 5549 5546 5544 5543 5541 5538 5536 5535 5534 5532 5529 5527 5525 5523 5521 5519 5517 5515 5513 5510 5507 5504 5501 5498
5502 5512 5512 5516 5531 5545 5545 5550 5557 5559 5560 5560 5561 5564 5564 5560 5554 5549 5542 5537 5532 5529 5526 5524 5523 5519 5516 5516 5517 5516 5513 5512 5510 5508 5506 5504 5502 5499 5498 5496 5493 5489 5486 5484
5497 5509 5505 5508 5519 5525 5531 5537 5539 5544 5545 5545 5547 5549 5549 5546 5541 5533 5525 5518 5514 5510 5508 5507 5506 5503 5500 5499 5499 5498 5497 5496 5495 5493 5490 5489 5487 5485 5483 5480 5478 5475 5473 5470
5485 5493 5496 5498 5507 5510 5514 5519 5522 5523 5524 5525 5527 5529 5531 5528 5522 5516 5507 5502 5498 5495 5492 5491 5490 5487 5484 5482 5481 5480 5481 5481 5480 5478 5475 5474 5472 5470 5468 5465 5463 5460 5459 5457
5456 5467 5484 5494 5493 5497 5502 5501 5503 5504 5504 5504 5505 5505 5506 5506 5502 5496 5490 5485 5482 5479 5476 5474 5471 5469 5466 5465 5464 5463 5464 5466 5465 5463 5461 5458 5457 5454 5452 5449 5446 5446 5444 5442